AirNav   Everest Fuels
 
 836 users online  

SC90 Do-Little Field Airport
St Matthews, South Carolina, USA

GOING TO ST MATTHEWS?


FAA INFORMATION EFFECTIVE 10 SEPTEMBER 2020

Location

FAA Identifier: SC90
Lat/Long: 33-40-35.7300N 080-56-53.3300W
33-40.595500N 080-56.888833W
33.6765917,-80.9481472
(estimated)
Elevation: 369 ft. / 112 m (estimated)
Variation: 05W (1990)
From city: 9 miles W of ST. MATTHEWS, SC
Time zone: UTC -4 (UTC -5 during Standard Time)
Zip code: 29135

Airport Operations

Airport use: Private use. Permission required prior to landing
Activation date: 06/1993
Control tower: no
ARTCC: JACKSONVILLE CENTER
FSS: ANDERSON FLIGHT SERVICE STATION
Attendance: UNATNDD
Wind indicator: yes
Segmented circle: no

Airport Communications

WX ASOS at OGB (14 nm S): 118.525 (803-536-3901)
WX ASOS at CUB (18 nm N): 118.675 (803-929-0665)
WX ASOS at CAE (18 nm NW): 120.15 (803-822-4168)

Nearby radio navigation aids

VOR radial/distance  VOR name  Freq  Var
CAEr156/12.1COLUMBIA VORTAC114.7002W
MMTr214/16.5MC ENTIRE VORTAC113.2008W
VANr302/27.7VANCE VORTAC110.4006W

 
NDB name  Hdg/Dist  Freq  Var  ID
SUMTER244/34.925207WSMS ... -- ...
AIKEN094/36.434706WAIK .- .. -.-
MANNING284/37.438106WMNI -- -. ..

Airport Services

Runway Information

Runway 14/32

Dimensions: 3200 x 100 ft. / 975 x 30 m
Surface: turf
RUNWAY 14  RUNWAY 32
Traffic pattern: leftright

Airport Ownership and Management from official FAA records

Ownership: Privately-owned
Owner: DO-LITTLE FIELD INC
160 DO LITTLE LANE
ST MATTHEWS, SC 29135
Phone 803-874-4281
Manager: BILL MITCHELL
35 DOOLITTLE LN
ST MATTHEWS, SC 29135
Phone 803-874-1310

Airport Operational Statistics

Aircraft based on the field: 9
Single engine airplanes: 9
    

Additional Remarks

FOR CD CTC COLUMBIA APCH AT 803-822-5242 OR 803-822-5040.

Instrument Procedures

There are no published instrument procedures at SC90.

Some nearby airports with instrument procedures:

KXNO - North Air Force Auxiliary Field (8 nm SW)
KOGB - Orangeburg Municipal Airport (14 nm S)
KMMT - Mc Entire Joint National Guard Base (16 nm NE)
6J0 - Lexington County Airport (16 nm NW)
KCUB - Jim Hamilton L B Owens Airport (18 nm N)
KCAE - Columbia Metropolitan Airport (18 nm NW)
 
Loc | Ops | Rwys | IFR | FBO | Links
Com | Nav | Svcs | Stats | Notes
Area around SC90 (Do-Little Field Airport)
 
Road maps at: MapQuest Bing Google
 
Aerial photo
WARNING: Photo may not be current or correct
Aerial photo of SC90 (Do-Little Field Airport)
Photo by Eddie Price
Photo taken 10-Nov-2012
looking west.

Do you have a better or more recent aerial photo of Do-Little Field Airport that you would like to share? If so, please send us your photo.

 
Sectional chart

 
Airport distance calculator
Flying to Do-Little Field Airport? Find the distance to fly.

From to SC90

Sunrise and sunset
Times for 21-Sep-2020
 Local
(UTC-4)
 Zulu
(UTC)
Morning civil twilight06:4810:48
Sunrise07:1311:13
Sunset19:2023:20
Evening civil twilight19:4523:45

Current date and time
Zulu (UTC)  21-Sep-2020 04:15:57
Local (UTC-4)  21-Sep-2020 00:15:57
 
METAR
KXNO 
8nm SW 
210356Z AUTO 02007KT 10SM FEW049 15/10 A3036 RMK AO2 SLP283 T01500104 $
KOGB 
14nm S 
210353Z AUTO 04008KT 10SM CLR 17/10 A3034 RMK AO2 SLP273 T01670100
KMMT 
17nm NE 
210356Z AUTO 04007KT 10SM CLR M M RMK AO2 SLPNO PNO $
KCAE 
18nm NW 
210356Z 04010KT 10SM CLR 17/09 A3036 RMK AO2 SLP279 T01720094
KCUB 
18nm N 
210353Z AUTO VRB04KT 10SM CLR 16/11 A3038 RMK AO2 SLP285 T01610106 TSNO
TAF
KOGB 
14nm S 
202258Z 2023/2118 05010KT P6SM FEW040 FM210000 04010KT P6SM SKC WS015/05035KT FM211400 05014G20KT P6SM FEW250
KMMT 
17nm NE 
202300Z 2023/2205 05012G18KT 9999 SCT050 SCT200 QNH3025INS BECMG 2102/2103 05009KT 9999 SCT030 SCT200 QNH3020INS BECMG 2117/2118 06012G18KT 9999 SKC QNH3029INS BECMG 2123/2124 05006KT 9999 FEW030 QNH3030INS TX21/2120Z TN12/2111Z
KCAE 
18nm NW 
202049Z 2021/2118 04012G18KT P6SM FEW040 FM210000 04010KT P6SM SKC WS015/05035KT FM211400 05014G20KT P6SM FEW250
KCUB 
18nm N 
202049Z 2021/2118 04009KT P6SM FEW040 FM210000 04007KT P6SM SKC WS015/05035KT FM211400 05014G20KT P6SM FEW250
NOTAMs
Click for the latest NOTAMs
NOTAMs are issued by the DoD/FAA and will open in a separate window not controlled by AirNav.

 

 
 

Would you like to see your business listed on this page?

 If your business provides an interesting product or service to pilots, flight crews, aircraft, or users of the Do-Little Field Airport, you should consider listing it here.  To start the listing process, click on the button below
 
Add a business
 

Other Pages about Do-Little Field Airport

Update a link
 
Copyright © AirNav, LLC. All rights reserved. Privacy Policy  Contact